Regional Weather Roundup
Issued by NWS

Home | Current Version | Previous Version | Graphics & Text | Print | Product List | Glossary On
Versions: 1 2 3 4 5 6 7 8 9 10 11 12 13 14 15 16 17 18 19 20 21 22 23 24 25 26 27 28 29 30 31 32 33 34 35 36 37 38 39 40 41 42 43 44 45 46 47 48 49 50
000
ASUS45 KBOU 051907
RWRCO

WEATHER ROUNDUP FOR COLORADO
NATIONAL WEATHER SERVICE DENVER/BOULDER CO
1200 PM MST FRI FEB 05 2016

NOTE: "FAIR" INDICATES FEW OR NO CLOUDS BELOW 12000 FEET WITH NO
SIGNIFICANT WEATHER AND/OR OBSTRUCTIONS TO VISIBILITY.

COZ001>005-013-030-031-052000-
...NORTHWEST COLORADO...

CITY           SKY/WX    TMP DP  RH WIND       PRES   REMARKS
CRAIG          PTSUNNY   18  14  84 CALM      30.47F
HAYDEN         CLOUDY    18  12  79 CALM      30.45F
MEEKER         SUNNY     21  14  74 NE3       30.47F
MOUNT WERNER   NOT AVBL
STEAMBOAT SPGS CLOUDY    18  11  74 CALM      30.43F
WALDEN         SUNNY     16   3  57 SE7       30.35F WCI   6
$$

COZ006>008-011-052000-
...WEST CENTRAL VALLEYS...

CITY           SKY/WX    TMP DP  RH WIND       PRES   REMARKS
GRAND JUNCTION SUNNY     21  14  74 E6        30.57F WCI  13
MONTROSE       SUNNY     22  11  62 CALM      30.55F
EAGLE          SUNNY     18   9  68 CALM      30.50F
RIFLE          SUNNY     19  12  74 CALM      30.53F
DELTA          SUNNY     24  14  65 N3        30.57F
NUCLA          SUNNY     21  12  68 CALM      30.55F
$$

COZ017>023-064>068-052000-
...SOUTHWEST COLORADO...

CITY           SKY/WX    TMP DP  RH WIND       PRES   REMARKS
DURANGO        SUNNY     18   7  62 NE6       30.40F WCI  10
CORTEZ         SUNNY     31  15  52 NW9       30.44S WCI  23
PAGOSA SPRINGS SUNNY     27   8  46 SW7       30.34F WCI  19
TELLURIDE      SUNNY     21   4  48 CALM      30.38S
WOLF CREEK PAS SUNNY     10  -9  40 N17G24    30.28R WCI  -7
$$

COZ009-010-012-014-032>034-037-058>063-052000-
...CENTRAL COLORADO...

CITY           SKY/WX    TMP DP  RH WIND       PRES   REMARKS
ASPEN          MOSUNNY   17   8  67 CALM      30.40F
BUENA VISTA    SUNNY     25   4  41 NW24G32   30.29F WCI   9
COPPER MTN     CLOUDY     7   0  72 W10       30.23F HAZE    WCI  -8
BERTHOUD PASS  CLOUDY     0 -11  60 N21G30    30.18S WCI -23
COTTONWOOD PAS SUNNY     23   3  42 CALM      30.26F
GUNNISON       SUNNY     -4 -15  59 SE3       30.48F
KREMMLING      LGT SNOW   9   0  66 CALM      30.44F
LEADVILLE      PTSUNNY   14   1  56 N8        30.28S WCI   3
MONARCH PASS   SUNNY      3   0  85 MISG      30.32S
SALIDA         SUNNY     28   2  31 CALM      30.40F
SUNLIGHT       MOSUNNY  N/A N/A N/A CALM        N/A
WILKERSON PASS SUNNY     14   0  52 N8        30.23F WCI   3
$$

COZ069>075-052000-
...SAN LUIS VALLEY/SANGRE DE CRISTO MOUNTAINS...

CITY           SKY/WX    TMP DP  RH WIND       PRES   REMARKS
ALAMOSA        SUNNY     24   5  44 VRB5      30.33S WCI  18
LA VETA PASS   SUNNY     23   3  42 MISG      30.23S
SAGUACHE       SUNNY     25   7  46 NW15      30.33F WCI  12
$$

COZ035-036-038>040-052000-
...NORTHERN COLORADO FRONT RANGE...

CITY           SKY/WX    TMP DP  RH WIND       PRES   REMARKS
DENVER INTL AP MOSUNNY   36   6  28 N6        30.31F
DMNS CITY PARK   N/A     39   1  20 E3        30.31F
AURORA         MOSUNNY   33   7  33 NW5       30.31F WCI  29
FRONT RANGE AP MOSUNNY   32  12  43 MISG      30.32F
ERIE MUNI ARPT SUNNY     37   5  26 E5        30.32F
BOULDER MUN AP SUNNY     37   9  30 E7        30.30F
CENTENNIAL     MOSUNNY   34   6  31 N8        30.31F WCI  27
BROOMFIELD     MOSUNNY   37   5  25 CALM      30.31F
FORT COLLINS   SUNNY     36  16  44 E7        30.30F
LONGMONT       SUNNY     44  10  25 SE3       30.32F
$$

COZ041-046-047-076>085-087-088-052000-
...PIKES PEAK/PALMER DIVIDE AND SOUTHERN FOOTHILLS...

CITY           SKY/WX    TMP DP  RH WIND       PRES   REMARKS
COLO. SPRINGS  MOSUNNY   31   7  36 N20       30.31F WCI  19
A. F. ACADEMY  SUNNY     29   6  38 N16       30.28F WCI  17
SCHRIEVER AFB  FAIR      28  11  49 NW8       30.32S WCI  20
ELLICOTT       NOT AVBL
FALCON         SUNNY     31   6  35 N12       30.30S WCI  21
FORT CARSON    PTSUNNY   31  13  47 S3        30.32S
LIMON          PTSUNNY   29  16  58 NW10      30.32F WCI  20
MONUMENT HILL  SUNNY     27   7  43 NW5       30.30F WCI  21
TRINIDAD       CLOUDY    32  16  51 N12       30.32F WCI  23
$$

COZ042>045-048>051-090-091-052000-
...NORTHEAST COLORADO...

CITY           SKY/WX    TMP DP  RH WIND       PRES   REMARKS
GREELEY ARPT   SUNNY     34  18  51 N14       30.33F WCI  24
AKRON          CLOUDY    27  17  66 W15       30.30F WCI  15
BURLINGTON     CLOUDY    32  20  61 NW18      30.30F WCI  20
WRAY           SUNNY     36  22  57 W16G22    30.30F
STERLING       CLOUDY    34  21  60 NW21G26   30.29F WCI  22
HOLYOKE        SUNNY     37  23  56 NW15G24   30.27F
FORT MORGAN    CLOUDY    32  19  57 W5        30.32F WCI  28
$$

COZ086-089-092>099-052000-
...SOUTHEAST COLORADO...

CITY           SKY/WX    TMP DP  RH WIND       PRES   REMARKS
PUEBLO         SUNNY     38  12  34 N7        30.35F
LA JUNTA       MOSUNNY   36  20  52 N12       30.35S
LAMAR          SUNNY     42  21  43 NE22G29   30.31S
SPRINGFIELD      N/A     35  24  64 N24       30.28R WCI  23
$$



USA.gov is the U.S. government's official web portal to all federal, state and local government web resources and services.